Vorticity
nan nan nan nan nan nan nan nan nan nan nan nan nan nan nan nan nan nan nan nan nan nan nan nan nan nan nan
nan 10 9 9 9 8 9 9 8 4 6 9 9 10 10 11 11 10 8 9 10 10 12 10 9 8 nan
nan 10 10 10 11 10 10 10 6 8 11 11 9 11 12 9 6 8 10 11 11 11 12 11 10 11 nan
nan 11 10 8 7 7 9 10 9 13 13 15 16 15 12 10 12 11 12 12 10 10 11 11 10 11 nan
nan 9 7 7 8 10 9 9 11 12 16 14 15 14 11 15 11 9 11 11 9 9 11 11 11 11 nan
nan 5 7 7 9 8 8 8 14 12 6 6 9 8 11 12 6 7 8 8 10 12 12 13 12 12 nan
nan 9 9 9 9 10 11 10 7 6 8 10 12 10 11 8 4 6 9 11 13 13 12 12 11 10 nan
nan 7 7 5 6 9 11 12 11 11 11 11 12 12 11 8 11 9 14 14 12 11 9 8 11 12 nan
nan 9 8 10 12 16 13 10 11 13 13 14 10 12 13 15 20 18 16 10 7 9 10 11 12 19 nan
nan 12 16 14 16 16 11 9 9 12 11 8 8 10 15 14 12 16 13 11 14 15 12 11 14 17 nan
nan 12 12 12 15 11 10 9 10 7 1 6 10 10 7 6 8 8 10 15 17 15 16 15 14 9 nan
nan 10 10 10 9 9 10 11 10 6 9 10 9 8 8 7 7 9 9 13 11 12 16 16 17 18 nan
nan 10 10 10 9 12 13 13 12 13 13 12 9 9 10 9 9 6 9 12 13 12 11 14 16 16 nan
nan 10 10 11 12 12 10 11 12 14 15 15 12 10 9 9 8 9 11 8 10 11 11 9 10 11 nan
nan 10 11 10 11 11 12 11 9 8 10 14 17 14 11 8 7 11 10 10 10 10 10 10 12 12 nan
nan 11 10 9 9 11 12 11 10 10 11 10 10 13 16 22 11 0 11 11 10 12 11 10 10 11 nan
nan nan nan nan nan nan nan nan nan nan nan nan nan nan nan nan nan nan nan nan nan nan nan nan nan nan nan
CAPE
0 0 0 0 0 0 0 0 0 0 7 16 23 27 26 30 32 27 38 48 55 54 72 66 83 73 87
0 0 0 0 0 0 0 0 0 0 6 15 16 12 17 22 29 26 39 40 35 37 41 43 47 57 59
0 0 0 0 0 0 0 0 0 0 0 2 4 9 15 20 27 27 25 28 29 24 28 33 38 44 53
0 0 0 0 0 0 0 0 0 0 0 0 4 7 10 8 9 9 9 10 20 24 23 27 33 46 64
0 0 0 0 0 0 0 0 0 0 0 0 0 0 0 0 0 0 2 10 25 25 31 30 31 35 60
0 0 0 0 0 0 0 0 0 0 0 0 0 0 0 0 0 3 9 13 21 21 19 34 28 43 51
0 0 0 0 0 0 0 0 0 0 0 0 0 0 0 0 0 1 4 10 18 22 18 23 28 35 47
0 0 0 0 1 1 0 0 0 0 0 0 0 0 0 0 0 0 1 3 10 19 17 21 19 16 16
1 5 8 6 0 0 0 0 0 0 0 0 0 0 0 0 0 0 0 5 7 8 11 19 18 15 5
0 0 0 0 0 0 0 0 0 0 0 0 0 0 0 0 0 0 0 0 2 7 11 13 18 2 3
0 0 0 0 0 0 0 0 0 0 0 0 0 0 0 0 0 0 0 0 0 0 1 4 10 10 2
0 0 0 0 0 0 0 0 1 1 0 0 0 0 0 0 0 0 0 0 0 0 0 0 6 9 18
0 0 0 0 0 0 0 0 0 0 0 0 0 0 0 0 0 0 0 0 0 0 0 0 0 0 0
0 0 0 0 0 0 0 0 0 0 0 0 0 0 0 0 0 0 0 0 0 0 0 0 1 1 4
0 1 0 0 0 0 0 0 0 0 0 0 0 0 0 0 0 0 0 0 0 0 0 1 0 0 0
0 0 0 0 0 0 0 0 0 0 0 0 0 0 0 0 0 0 0 0 0 0 0 0 0 0 0
0 0 0 0 0 0 0 0 0 0 0 0 0 0 0 0 0 0 0 0 0 0 0 0 1 0 0